This is the latest recevied weather packets stored in our database for station/object IZ2MHJ-3. If no packets are shown the sender has not sent any weather packets the latest 10 day(s).
| Time | Temp. | Humidity | Pressure | Rain* | Wind** | Luminosity | Snow |
|---|---|---|---|---|---|---|---|
| 1787772005 | 28.33° C | 65% | 1017.7 hPa | - | - | - | - |
| 1787770804 | 27.78° C | 66% | 1017.8 hPa | - | - | - | - |
| 1787769604 | 28.33° C | 62% | 1017.6 hPa | - | - | - | - |
| 1787768404 | 28.89° C | 62% | 1017.7 hPa | - | - | - | - |
| 1787767203 | 28.89° C | 62% | 1017.6 hPa | - | - | - | - |
| 1787766003 | 29.44° C | 60% | 1017.4 hPa | - | - | - | - |
| 1787764803 | 30° C | 58% | 1017 hPa | - | - | - | - |
| 1787763603 | 29.44° C | 59% | 1017 hPa | - | - | - | - |
| 1787762402 | 29.44° C | 60% | 1017.1 hPa | - | - | - | - |
| 1787761202 | 31.11° C | 53% | 1016.9 hPa | - | - | - | - |
| 1787760002 | 31.67° C | 51% | 1016.8 hPa | - | - | - | - |
| 1787758801 | 32.22° C | 49% | 1016.7 hPa | - | - | - | - |
| 1787757601 | 33.33° C | 47% | 1016.5 hPa | - | - | - | - |
| 1787756401 | 33.33° C | 47% | 1016.4 hPa | - | - | - | - |
| 1787755200 | 33.33° C | 47% | 1016.9 hPa | - | - | - | - |
| 1787754000 | 32.78° C | 47% | 1017.1 hPa | - | - | - | - |
| 1787752800 | 34.44° C | 45% | 1016.9 hPa | - | - | - | - |
| 1787751599 | 33.89° C | 46% | 1017.3 hPa | - | - | - | - |
| 1787750399 | 35.56° C | 44% | 1017.2 hPa | - | - | - | - |
| 1787749199 | 33.89° C | 45% | 1017.3 hPa | - | - | - | - |
| 1787747998 | 35.56° C | 42% | 1017.4 hPa | - | - | - | - |
| 1787746798 | 35° C | 44% | 1017.4 hPa | - | - | - | - |
| 1787745597 | 32.78° C | 49% | 1018.1 hPa | - | - | - | - |
| 1787744396 | 31.11° C | 53% | 1018.3 hPa | - | - | - | - |
| 1787743196 | 33.89° C | 47% | 1018.1 hPa | - | - | - | - |
* Rain since midnight (hover to see other rain measurements)
** Current wind speed in m/s (hover to see current wind gust speed)